Miscellaneous Local Product
Issued by NWS Hastings, NE

Home | Current Version | Previous Version | Text Only | Print | Product List | Glossary On
Versions: 1 2 3 4 5 6 7 8 9 10 11 12 13 14 15 16 17 18 19 20 21 22 23 24 25 26 27 28 29 30 31 32 33 34 35 36 37 38 39 40 41 42 43 44 45 46 47 48 49 50
000
AXUS43 KGID 130002
MISGRI

GID CWA HOURLY WEATHER ROUNDUP
NATIONAL WEATHER SERVICE HASTINGS NE
600 PM CST TUE DEC 12 2017

NOTE: "FAIR" INDICATES FEW OR NO CLOUDS BELOW 12,000 FEET WITH NO
SIGNIFICANT WEATHER AND/OR OBSTRUCTIONS TO VISIBILITY.

...SOUTH CENTRAL NEBRASKA...

CITY           SKY/WX    TMP DP  RH WIND       PRES   REMARKS
GRAND ISLAND   CLEAR     44  17  33 S7        30.00F
KEARNEY        CLEAR     41  21  44 SW8       30.00F
HASTINGS       CLEAR     43  18  36 SW6       30.01F
ORD            CLEAR     41  17  38 SW9       29.94F
YORK           CLEAR     39  19  45 SW8       30.00F WCI  34
AURORA         CLEAR     42  16  35 SW7       29.99F
LEXINGTON      CLEAR     42  20  40 S7        29.99F
HOLDREGE       CLEAR     41  22  47 SW6       30.00F
HEBRON         CLEAR     42  24  49 SW8       30.03F

...NEBRASKA PANHANDLE...

CITY           SKY/WX    TMP DP  RH WIND       PRES   REMARKS
CHADRON        CLEAR     49  19  30 SW7       29.97F
ALLIANCE       CLEAR     42  18  37 W9        30.00F
SCOTTSBLUFF    CLEAR     52  15  23 W10       30.05F
SIDNEY         CLEAR     50  13  22 W12       30.07F

...WESTERN AND NORTH CENTRAL NEBRASKA...

CITY           SKY/WX    TMP DP  RH WIND       PRES   REMARKS
VALENTINE      CLEAR     45  20  36 W7        29.91F
AINSWORTH      CLEAR     44  22  42 W9        29.91F
ONEILL         CLEAR     43  22  43 SW9       29.90F
BROKEN BOW     CLEAR     40  20  44 CALM      29.96F
IMPERIAL       CLEAR     52  18  26 W7        30.03F
NORTH PLATTE   CLEAR     42  20  41 CALM      29.99F
MCCOOK         CLEAR     53  20  27 SW7       30.01F

...EASTERN NEBRASKA...

CITY           SKY/WX    TMP DP  RH WIND       PRES   REMARKS
NORFOLK        CLEAR     39  23  52 SW10      29.91F WCI  32
SO SIOUX CITY  CLEAR     33  23  66 S5        29.93F WCI  29
TEKAMAH        CLEAR     33  23  66 S12       29.96F WCI  24
ALBION         CLEAR     41  20  43 S5        29.95F
OMAHA EPPLEY   CLEAR     37  25  61 S10       30.00F WCI  30
OFFUTT AFB     CLEAR     33  25  72 S3        30.00F
MILLARD        CLEAR     41  29  63 S3        30.00F
LINCOLN        CLEAR     38  24  57 S5        30.02F WCI  34
NEBRASKA CITY  CLEAR     33  27  78 S7        30.02F WCI  27
BEATRICE       CLEAR     39  25  58 S7        30.04F WCI  34
FALLS CITY     CLEAR     37  25  61 S8        30.06F WCI  31

...NORTHERN KANSAS...

CITY           SKY/WX    TMP DP  RH WIND       PRES   REMARKS
GOODLAND       CLEAR     43  15  32 CALM      30.07F
HILL CITY      CLEAR     48  17  29 SW3       30.05F
NORTON         CLEAR     48  12  23 S3        30.02F
PHILLIPSBURG   CLEAR     48  18  29 S3        30.03F
SMITH CENTER   CLEAR     39  19  45 S8        30.04F WCI  34
HAYS           CLEAR     49  17  28 S8        30.06F
RUSSELL        CLEAR     43  21  41 S10       30.04F
CONCORDIA      CLEAR     42  26  53 S9        30.04F
SALINA         CLEAR     42  25  50 S8        30.09F
TOPEKA         CLEAR     36  26  67 SE5       30.11F WCI  32



USA.gov is the U.S. government's official web portal to all federal, state and local government web resources and services.